Previsão horária em Abadeh

Hoje, 28 Outubro, Quarta-feira

Tempo Temperatura Precipitação Vento Pressão Humidade
00:00 +6°C° 0 mm 2 m/s 591 mmHg 38%
01:00 +6°C° 0 mm 2 m/s 591 mmHg 39%
02:00 +5°C° 0 mm 2 m/s 591 mmHg 42%
03:00 +6°C° 0 mm 1 m/s 590 mmHg 46%
04:00 +5°C° 0 mm 1 m/s 590 mmHg 50%
05:00 +5°C° 0 mm 1 m/s 590 mmHg 48%
06:00 +5°C° 0 mm 1 m/s 590 mmHg 46%
07:00 +5°C° 0 mm 1 m/s 591 mmHg 44%
08:00 +8°C° 0 mm 1 m/s 593 mmHg 35%
09:00 +12°C° 0 mm 1 m/s 594 mmHg 27%
10:00 +15°C° 0 mm 2 m/s 596 mmHg 19%
11:00 +17°C° 0 mm 2 m/s 596 mmHg 17%
12:00 +18°C° 0 mm 3 m/s 596 mmHg 15%
13:00 +19°C° 0 mm 4 m/s 596 mmHg 13%
14:00 +19°C° 0 mm 4 m/s 596 mmHg 12%
15:00 +19°C° 0 mm 4 m/s 596 mmHg 11%
16:00 +19°C° 0 mm 4 m/s 596 mmHg 11%
17:00 +16°C° 0 mm 3 m/s 594 mmHg 16%
18:00 +11°C° 0 mm 3 m/s 593 mmHg 20%
19:00 +8°C° 0 mm 2 m/s 592 mmHg 24%
20:00 +7°C° 0 mm 2 m/s 592 mmHg 28%
21:00 +7°C° 0 mm 2 m/s 592 mmHg 32%
22:00 +6°C° 0 mm 2 m/s 592 mmHg 36%
23:00 +6°C° 0 mm 1 m/s 592 mmHg 40%

Amanhã, 29 Outubro, Quinta-feira

Tempo Temperatura Precipitação Vento Pressão Humidade
00:00 +5°C° 0 mm 1 m/s 591 mmHg 45%
01:00 +5°C° 0 mm 1 m/s 591 mmHg 49%
02:00 +4°C° 0 mm 1 m/s 591 mmHg 52%
03:00 +4°C° 0 mm 1 m/s 590 mmHg 55%
04:00 +4°C° 0 mm 1 m/s 590 mmHg 58%
05:00 +3°C° 0 mm 1 m/s 590 mmHg 58%
06:00 +3°C° 0 mm 1 m/s 590 mmHg 58%
07:00 +3°C° 0 mm 1 m/s 590 mmHg 58%
08:00 +7°C° 0 mm 1 m/s 592 mmHg 45%
09:00 +11°C° 0 mm 1 m/s 594 mmHg 31%
10:00 +15°C° 0 mm 1 m/s 596 mmHg 18%
11:00 +16°C° 0 mm 1 m/s 596 mmHg 16%
12:00 +18°C° 0 mm 2 m/s 596 mmHg 14%
13:00 +19°C° 0 mm 3 m/s 596 mmHg 12%
14:00 +19°C° 0 mm 3 m/s 596 mmHg 11%
15:00 +19°C° 0 mm 3 m/s 596 mmHg 11%
16:00 +19°C° 0 mm 4 m/s 595 mmHg 11%
17:00 +14°C° 0 mm 3 m/s 594 mmHg 16%
18:00 +10°C° 0 mm 2 m/s 592 mmHg 20%
19:00 +8°C° 0 mm 1 m/s 591 mmHg 25%
20:00 +7°C° 0 mm 1 m/s 591 mmHg 31%
21:00 +6°C° 0 mm 0 m/s 591 mmHg 38%
22:00 +5°C° 0 mm 0 m/s 591 mmHg 44%
23:00 +6°C° 0 mm 1 m/s 590 mmHg 46%

Depois de amanhã, 30 Outubro, Sexta-feira

Tempo Temperatura Precipitação Vento Pressão Humidade
00:00 +5°C° 0 mm 1 m/s 590 mmHg 49%
01:00 +5°C° 0 mm 1 m/s 590 mmHg 51%
02:00 +5°C° 0 mm 1 m/s 590 mmHg 52%
03:00 +4°C° 0 mm 1 m/s 589 mmHg 54%
04:00 +4°C° 0 mm 1 m/s 589 mmHg 55%
05:00 +4°C° 0 mm 1 m/s 589 mmHg 53%
06:00 +3°C° 0 mm 0 m/s 589 mmHg 51%
07:00 +3°C° 0 mm 0 m/s 589 mmHg 48%
08:00 +7°C° 0 mm 0 m/s 592 mmHg 37%
09:00 +11°C° 0 mm 0 m/s 594 mmHg 25%
10:00 +16°C° 0 mm 0 m/s 596 mmHg 13%
11:00 +19°C° 0 mm 1 m/s 596 mmHg 12%
12:00 +20°C° 0 mm 1 m/s 596 mmHg 11%
13:00 +20°C° 0 mm 2 m/s 596 mmHg 10%
14:00 +20°C° 0 mm 2 m/s 595 mmHg 10%
15:00 +20°C° 0 mm 3 m/s 595 mmHg 10%
16:00 +21°C° 0 mm 3 m/s 595 mmHg 9%
17:00 +17°C° 0 mm 2 m/s 593 mmHg 14%
18:00 +13°C° 0 mm 2 m/s 592 mmHg 18%
19:00 +9°C° 0 mm 1 m/s 590 mmHg 23%
20:00 +8°C° 0 mm 1 m/s 590 mmHg 25%
21:00 +8°C° 0 mm 1 m/s 590 mmHg 28%
22:00 +7°C° 0 mm 1 m/s 590 mmHg 30%
23:00 +6°C° 0 mm 0 m/s 590 mmHg 38%

31 Outubro, Sábado

Tempo Temperatura Precipitação Vento Pressão Humidade
00:00 +5°C° 0 mm 0 m/s 590 mmHg 47%
01:00 +5°C° 0 mm 0 m/s 590 mmHg 55%
02:00 +4°C° 0 mm 0 m/s 589 mmHg 55%
03:00 +4°C° 0 mm 0 m/s 589 mmHg 55%
04:00 +4°C° 0 mm 0 m/s 589 mmHg 55%
05:00 +4°C° 0 mm 0 m/s 589 mmHg 55%
06:00 +3°C° 0 mm 0 m/s 589 mmHg 55%
07:00 +3°C° 0 mm 0 m/s 589 mmHg 55%
08:00 +8°C° 0 mm 0 m/s 591 mmHg 40%
09:00 +12°C° 0 mm 0 m/s 594 mmHg 26%
10:00 +16°C° 0 mm 0 m/s 596 mmHg 12%
11:00 +20°C° 0 mm 1 m/s 596 mmHg 11%
12:00 +21°C° 0 mm 1 m/s 596 mmHg 10%
13:00 +21°C° 0 mm 2 m/s 596 mmHg 8%
14:00 +21°C° 0 mm 2 m/s 596 mmHg 8%
15:00 +21°C° 0 mm 3 m/s 595 mmHg 8%
16:00 +22°C° 0 mm 4 m/s 595 mmHg 8%
17:00 +18°C° 0 mm 3 m/s 594 mmHg 14%
18:00 +14°C° 0 mm 2 m/s 592 mmHg 19%
19:00 +10°C° 0 mm 1 m/s 590 mmHg 24%
20:00 +9°C° 0 mm 1 m/s 590 mmHg 29%
21:00 +8°C° 0 mm 1 m/s 590 mmHg 35%
22:00 +7°C° 0 mm 1 m/s 590 mmHg 40%
23:00 +7°C° 0 mm 1 m/s 590 mmHg 44%

1 Novembro, Domingo

Tempo Temperatura Precipitação Vento Pressão Humidade
00:00 +7°C° 0 mm 1 m/s 590 mmHg 48%
01:00 +6°C° 0 mm 1 m/s 590 mmHg 51%
02:00 +6°C° 0 mm 1 m/s 590 mmHg 51%
03:00 +6°C° 0 mm 1 m/s 589 mmHg 51%
04:00 +5°C° 0 mm 1 m/s 589 mmHg 51%
05:00 +5°C° 0 mm 1 m/s 590 mmHg 49%
06:00 +5°C° 0 mm 1 m/s 590 mmHg 46%
07:00 +5°C° 0 mm 1 m/s 590 mmHg 44%
08:00 +9°C° 0 mm 1 m/s 592 mmHg 33%
09:00 +14°C° 0 mm 1 m/s 594 mmHg 22%
10:00 +19°C° 0 mm 1 m/s 597 mmHg 11%
11:00 +20°C° 0 mm 1 m/s 597 mmHg 9%
12:00 +21°C° 0 mm 2 m/s 597 mmHg 8%
13:00 +23°C° 0 mm 2 m/s 597 mmHg 6%
14:00 +23°C° 0 mm 2 m/s 597 mmHg 6%
15:00 +23°C° 0 mm 2 m/s 596 mmHg 6%
16:00 +24°C° 0 mm 2 m/s 596 mmHg 6%
17:00 +18°C° 0 mm 2 m/s 595 mmHg 13%
18:00 +14°C° 0 mm 1 m/s 593 mmHg 20%
19:00 +10°C° 0 mm 1 m/s 591 mmHg 26%
20:00 +9°C° 0 mm 1 m/s 591 mmHg 30%
21:00 +9°C° 0 mm 1 m/s 591 mmHg 33%
22:00 +8°C° 0 mm 1 m/s 591 mmHg 36%
23:00 +8°C° 0 mm 1 m/s 591 mmHg 39%

2 Novembro, Segunda-feira

Tempo Temperatura Precipitação Vento Pressão Humidade
00:00 +7°C° 0 mm 1 m/s 591 mmHg 43%
01:00 +7°C° 0 mm 1 m/s 591 mmHg 46%
02:00 +6°C° 0 mm 1 m/s 591 mmHg 48%
03:00 +6°C° 0 mm 1 m/s 591 mmHg 50%
04:00 +6°C° 0 mm 1 m/s 591 mmHg 52%
05:00 +4°C° 0 mm 0 m/s 591 mmHg 50%
06:00 +4°C° 0 mm 0 m/s 591 mmHg 49%
07:00 +4°C° 0 mm 0 m/s 591 mmHg 47%
08:00 +9°C° 0 mm 1 m/s 593 mmHg 35%
09:00 +14°C° 0 mm 1 m/s 596 mmHg 23%
10:00 +19°C° 0 mm 1 m/s 598 mmHg 11%
11:00 +20°C° 0 mm 1 m/s 598 mmHg 10%
12:00 +20°C° 0 mm 2 m/s 598 mmHg 9%
13:00 +23°C° 0 mm 2 m/s 598 mmHg 8%
14:00 +22°C° 0 mm 3 m/s 598 mmHg 8%
15:00 +22°C° 0 mm 4 m/s 598 mmHg 8%
16:00 +22°C° 0 mm 4 m/s 597 mmHg 8%
17:00 +18°C° 0 mm 3 m/s 596 mmHg 15%
18:00 +13°C° 0 mm 2 m/s 594 mmHg 21%
19:00 +9°C° 0 mm 1 m/s 593 mmHg 28%
20:00 +9°C° 0 mm 1 m/s 593 mmHg 31%
21:00 +9°C° 0 mm 1 m/s 593 mmHg 34%
22:00 +8°C° 0 mm 1 m/s 593 mmHg 37%
23:00 +7°C° 0 mm 1 m/s 592 mmHg 42%
Mostrar mais